Location: �terpigny
(49.8910°N, 2.9249°E)
Time: 10:50:27
(UTC+00:00)

Cosmos 1908 - Visible Passes

Search period start: 29 May 2022 00:00
Search period end: 08 June 2022 00:00
Orbit: 505 x 525 km, 82.5° (Epoch: 28 May)

Date Brightness Start Highest point End Pass type
(mag) Time Alt. Az. Time Alt. Az. Time Alt. Az.
29 May 4.8 00:35:56 10° NW 00:38:51 21° W 00:39:35 20° WSW visible
29 May 4.6 22:44:46 10° N 22:48:05 28° ENE 22:49:30 22° ESE visible
30 May 4.6 00:20:34 10° NNW 00:23:43 25° W 00:24:29 23° WSW visible
30 May 4.8 22:29:41 10° NNE 22:32:50 24° ENE 22:34:24 18° ESE visible
31 May 4.3 00:05:13 10° NNW 00:08:33 30° W 00:09:24 27° WSW visible
31 May 5.0 22:14:39 10° NNE 22:17:33 20° ENE 22:19:18 15° ESE visible
31 May 4.1 23:49:54 10° NNW 23:53:23 36° W 23:54:18 31° SW visible
01 Jun 5.2 21:59:38 10° NNE 22:02:15 18° ENE 22:04:13 13° ESE visible
01 Jun 3.8 23:34:35 10° NNW 23:38:12 43° W 23:39:12 34° SW visible
02 Jun 5.4 21:44:40 10° NNE 21:46:56 15° ENE 21:49:07 10° ESE visible
02 Jun 3.6 23:19:17 10° NNW 23:23:00 52° W 23:24:07 37° SSW visible
03 Jun 5.5 21:29:48 10° NE 21:31:37 13° ENE 21:33:25 10° E visible
03 Jun 3.3 23:04:00 10° NNW 23:07:46 64° W 23:09:02 38° SSW visible
04 Jun 5.6 21:15:09 10° NE 21:16:16 11° ENE 21:17:22 10° E visible
04 Jun 3.1 22:48:44 10° NNW 22:52:32 78° W 22:53:56 37° S visible
05 Jun 3.1 22:33:27 10° N 22:37:16 86° ENE 22:38:51 34° SSE visible
06 Jun 3.2 22:18:12 10° N 22:22:00 71° E 22:23:46 30° SSE visible
06 Jun 5.8 23:56:08 10° WNW 23:57:07 11° W 23:58:05 10° W visible
07 Jun 3.4 22:02:56 10° N 22:06:42 58° ENE 22:08:42 25° SSE visible
07 Jun 5.6 23:40:08 10° NW 23:41:55 13° W 23:43:42 10° WSW visible
